Location: Barletta
(41.3170°N, 16.2830°E)
Time: 17:45:39
(UTC+02:00)

ISS - Pass Details

Date: 14 May 2021
Orbit: 417 x 422 km, 51.6° (Epoch: 18 June)

Event Time Altitude Azimuth Distance (km) Brightness Sun altitude
Rises 04:27:39 0° 306° (NW) 2,375 -0.1 -11.9°
Reaches altitude 10° 04:29:45 10° 307° (NW) 1,508 -1.1 -11.6°
Maximum altitude 04:33:08 84° 35° (NE) 429 -3.7 -11.1°
Drops below altitude 10° 04:36:31 10° 124° (SE) 1,502 -0.7 -10.6°
Sets 04:38:37 0° 125° (SE) 2,363 0.3 -10.3°
